Terug naar catalogus

SDA_1682

ActiefWetenschapPO
NORAD 65992·PAYLOAD·🇺🇸 United States

Gelanceerd Oct 15, 2025 vanaf Vandenberg Space Force Base

Loading…

Volgende Passages (komende 24 uur)

TLE

VersSource: Space-Track

Epoch: Sep 14, 2026, 15:36 UTC

1 65992U 25230U   26257.65030737  .00000143  00000-0  13076-3 0  9994
2 65992  81.3020 130.5621 0001213  54.5903 305.5363 13.78099607 46081

Volg SDA_1682 in realtime met AllMySat

Download on the App Store